Regional Weather Roundup
Issued by NWS Melbourne, FL

Current Version | Previous Version | Text Only | Print | Product List | Glossary On
Versions: 1 2 3 4 5 6 7 8 9 10 11 12 13 14 15 16 17 18 19 20 21 22 23 24 25 26 27
000
ASUS42 KMLB 230907
RWRMLB
HOURLY WEATHER ROUNDUP AROUND FLORIDA
NATIONAL WEATHER SERVICE OFFICE MELBOURNE FL
500 AM EDT MON APR 23 2018

CITY           SKY/WX    TMP DP  RH WIND       PRES   REMARKS
MELBOURNE      FAIR      75  72  90 S6        30.01R
FORT PIERCE    FAIR      72  70  93 SE6       30.01R
ORLANDO INTL   MOCLDY    70  70 100 SE7       30.01R
DAYTONA BEACH  CLOUDY    71  70  96 VRB5      30.02R
VERO BEACH     FAIR      73  69  87 SE7       30.00S
$$
...ELSEWHERE ACROSS CENTRAL FLORIDA...

CITY           SKY/WX    TMP DP  RH WIND       PRES   REMARKS
PATRICK AFB    FAIR      74  74 100 SE9       30.01R
KSC            MOCLDY    73  70  91 SE6       30.01S
CAPE CANAVERAL FAIR      72  69  89 SE12      30.00S
ORLANDO EXEC   NOT AVBL
LEESBURG       MOCLDY    73  72  96 SE8       30.01R
SANFORD        CLOUDY    70  69  97 SE5       30.01R
DELAND         CLOUDY    72  70  94 SE6       30.02R
WINTER HAVEN   FAIR      71  69  93 SE8       30.01R
KISSIMMEE      CLOUDY    71  70  96 SE7       30.02R
OKEECHOBEE     FAIR      68  68 100 E5        30.00S
TAMPA          CLOUDY    74  69  85 SE6       29.99S
$$
...NORTHERN FLORIDA...

CITY           SKY/WX    TMP DP  RH WIND       PRES   REMARKS
PALM COAST     CLOUDY    71  69  92 SE9       30.02R
ST AUGUSTINE   CLOUDY    70  68  93 SE10      30.02S
OCALA          MOCLDY    71  69  93 S3        30.00R
GAINESVILLE    CLOUDY    71  68  90 SE7       30.01S
JACKSONVILLE   LGT RAIN  70  68  93 SE13      29.98F
TALLAHASSEE    MOCLDY    70  68  93 S8        29.94R
$$
...ALONG THE SOUTHEAST COAST TO THE KEYS...

CITY           SKY/WX    TMP DP  RH WIND       PRES   REMARKS
STUART         MOCLDY    73  68  83 S6        30.03R
WEST PALM BCH  FAIR      75  75 100 S7        30.01R
MIAMI          FAIR      77  73  87 SE14G21   29.99S
KEY WEST       FAIR      78  74  87 SE10      29.98R
$$
...MARINE REPORTS...

STATION/POSITION TIME  TEMP    WIND        PRES    WAVE   SWELL
                       AIR SEA DIR/SP/G            HT/PER HT/PER
                 (UTC) (F)     (DEG/KT/KT) (MB)    (FT/S) (FT/S)
ST AUGUSTINE FP  0900   70 69  130/ 13/ 14 1016.4R
20NM E CAPE CANA 0850   74 73  140/ 16/ 19 1016.5R   7/ 8   5/ 8
TRIDENT PIER     0848   72 76  110/  7/ 13 1017.7R
SEBASTIAN INLET  0845   75 76  170/ 10     1017.0S
4NM E PORT CANAV 0853      75                N/A     4/ 8
6NM NE FPR INLET 0830      75                N/A     5/ 8
$$




USA.gov is the U.S. government's official web portal to all federal, state and local government web resources and services.